CAPE
0 0 0 0 0 0 0 0 0 0 0 0 0 0 0 0 0 0 0 0 0 0 0 0 0 0 0 0 0 0 0 0 0 0 0 0 0 0 0 0 0 0 0
0 0 0 0 0 0 0 0 0 0 0 0 0 0 0 0 0 0 0 0 0 0 0 0 0 0 0 0 0 0 0 0 0 0 0 0 0 0 0 0 0 0 0
0 0 0 0 0 0 0 0 0 0 0 0 0 0 0 0 0 0 0 0 0 0 0 0 0 0 0 0 0 0 0 0 0 0 0 0 0 0 0 0 0 0 0
0 0 0 0 0 0 0 0 0 0 0 0 0 0 0 0 0 0 0 0 0 0 0 0 0 0 0 0 0 0 0 0 0 0 0 0 0 0 0 0 0 0 0
0 0 0 0 0 0 0 0 0 0 0 0 0 0 0 0 0 0 0 0 0 0 0 0 0 0 0 0 0 0 0 0 0 0 0 0 0 0 0 0 0 0 0
0 0 0 0 0 0 0 0 0 0 0 0 0 0 0 0 0 0 0 0 0 0 0 0 0 0 0 0 0 0 0 0 0 0 0 0 0 0 0 0 0 0 0
0 0 0 0 0 0 0 0 0 0 0 0 0 0 0 0 0 0 0 0 0 0 0 0 0 0 0 0 0 0 0 0 1 0 0 0 0 0 0 0 0 0 0
0 0 0 0 0 0 0 0 0 0 0 0 0 0 0 0 0 0 0 0 0 0 0 0 0 0 0 0 0 0 0 0 0 0 0 0 0 0 0 0 0 0 0
0 0 0 0 0 0 0 0 0 0 0 0 0 1 0 0 0 0 0 0 0 0 0 0 0 0 0 0 0 0 0 0 1 2 0 0 0 0 0 0 0 0 0
0 0 0 0 0 0 0 0 0 0 0 0 0 0 0 0 0 0 0 0 0 1 1 0 0 0 0 0 1 0 0 0 0 0 0 3 2 0 0 0 0 0 0
0 0 0 0 0 0 0 0 0 0 0 0 0 0 0 0 0 0 0 0 0 1 2 3 3 0 0 0 3 4 0 0 0 3 0 0 0 0 0 0 0 0 0
0 0 0 0 0 0 0 0 0 0 0 0 0 0 0 0 0 0 0 0 3 0 0 3 6 1 1 1 2 4 12 11 6 7 0 0 0 0 0 0 0 0 0
0 0 0 0 0 0 0 0 0 0 0 0 0 0 0 0 0 0 0 0 0 0 0 0 0 1 0 6 4 22 21 17 13 13 8 0 0 0 0 0 0 0 0
0 0 0 0 0 0 0 0 0 0 0 0 0 0 0 0 0 0 0 0 0 0 0 0 0 0 5 0 0 22 22 12 5 5 8 0 0 0 0 0 0 0 0
0 0 0 0 0 0 0 0 0 0 0 0 0 0 0 0 0 3 8 7 4 5 10 0 0 1 0 0 1 3 0 0 1 6 9 2 0 0 0 0 0 0 0
0 0 0 0 0 0 0 0 0 0 0 0 2 2 0 6 6 9 10 16 18 23 6 6 7 1 0 2 0 0 0 0 0 12 5 4 0 0 0 0 0 0 0
0 0 0 0 0 0 0 0 0 0 0 0 0 0 2 3 3 8 10 13 18 9 0 0 0 0 0 2 1 0 1 1 2 10 15 5 0 0 0 0 0 0 0
0 0 0 0 0 0 0 0 0 0 0 0 0 0 0 0 0 4 3 5 0 0 0 0 0 0 0 0 0 0 0 2 1 3 8 0 0 0 0 0 0 0 0
0 0 0 0 0 0 0 0 0 0 0 0 0 0 0 0 0 0 0 0 0 0 0 0 0 0 0 0 0 0 0 0 0 0 2 0 0 0 0 0 0 0 0
0 0 0 0 0 0 0 0 0 0 0 0 0 0 0 0 0 0 0 0 0 0 0 0 0 0 0 0 0 0 0 0 0 0 0 0 0 0 0 0 0 0 0
0 0 0 0 0 0 0 0 0 0 0 0 0 0 0 0 0 0 0 0 0 0 0 0 0 0 0 0 0 0 0 0 0 0 0 0 0 0 0 0 0 0 0
0 0 0 0 0 0 0 0 0 0 0 0 0 0 0 0 0 0 0 0 0 0 0 0 0 0 0 0 0 0 0 0 0 0 0 0 0 0 0 0 0 0 0
0 0 0 0 0 0 0 0 0 0 0 0 0 0 0 0 0 0 0 0 0 0 0 0 0 0 0 0 0 0 0 0 0 0 0 0 0 0 0 0 0 0 0
0 0 0 0 0 0 0 0 0 0 0 0 0 0 0 0 0 0 0 0 0 0 0 0 0 0 0 0 0 0 0 0 0 0 0 0 0 0 0 0 0 0 0
0 0 0 0 0 0 0 0 0 0 0 0 0 0 0 0 0 0 0 0 0 0 0 0 0 0 0 0 0 0 0 0 0 0 0 0 0 0 0 0 0 0 0
0 0 0 0 0 0 0 0 0 0 0 0 0 0 0 0 0 0 0 0 0 0 0 0 0 0 0 0 0 0 0 0 0 0 0 0 0 0 0 0 0 0 0
CIN
0 0 0 0 0 0 0 0 0 0 0 0 0 0 0 0 0 0 0 0 0 0 0 0 0 0 0 0 0 0 0 0 0 0 0 0 0 0 0 0 0 0 0
0 0 0 0 0 0 0 0 0 0 0 0 0 0 0 0 0 0 0 0 0 0 0 0 0 0 0 0 0 0 0 0 0 0 0 0 0 0 0 0 0 0 0
0 0 0 0 0 0 0 0 0 0 0 0 0 0 0 0 0 0 0 0 0 0 0 0 0 0 0 0 0 0 0 0 0 0 0 0 0 0 0 0 0 0 0
0 0 0 0 0 0 0 0 0 0 0 0 0 0 0 0 0 0 0 0 0 0 0 0 0 0 0 0 0 0 0 0 0 0 0 0 0 0 0 0 0 0 0
0 0 0 0 0 0 0 0 0 0 0 0 0 0 0 0 0 0 0 0 0 0 0 0 0 0 0 0 0 0 0 0 0 0 0 0 0 0 0 0 0 0 0
0 0 0 0 0 0 0 0 0 0 0 0 0 0 0 0 0 0 0 0 0 0 0 0 0 0 0 0 0 0 0 0 0 0 0 0 0 0 0 0 0 0 0
0 0 0 0 0 0 0 0 0 0 0 0 0 0 0 0 0 0 0 0 0 0 0 0 0 0 0 0 0 0 0 0 0 0 0 0 0 0 0 0 0 0 0
0 0 0 0 0 0 0 0 0 0 0 0 0 0 0 0 0 0 0 0 0 0 0 0 0 0 0 0 0 0 0 0 0 0 0 0 0 0 0 0 0 0 0
0 0 0 0 0 0 0 0 0 0 0 0 0 -1 -2 0 0 0 0 0 0 0 0 0 0 0 0 0 0 0 0 0 0 0 0 0 0 0 0 0 0 0 0
0 0 0 0 0 0 0 0 0 0 0 0 0 0 0 0 0 0 0 -3 0 -1 0 0 0 0 0 0 -1 0 0 0 0 0 0 0 0 0 0 0 0 0 0
0 0 0 0 0 0 0 0 0 0 0 0 0 0 0 0 0 0 -1 -4 0 -2 -1 -1 0 0 0 0 -1 -1 0 0 0 -2 0 0 0 0 0 0 0 0 0
0 0 0 0 0 0 0 0 0 0 0 0 0 0 0 0 0 0 0 -3 -5 -3 0 -1 0 -3 -4 -4 -3 -1 0 0 -1 -1 -5 0 0 0 0 0 0 0 0
0 0 0 0 0 0 0 0 0 0 0 0 0 0 0 0 0 0 0 0 0 0 0 0 0 -2 0 -2 -1 0 0 -1 -1 0 -2 0 0 0 0 0 0 0 0
0 0 0 0 0 0 0 0 0 0 0 0 0 0 0 0 0 0 0 0 0 0 0 0 0 -1 -3 -2 -1 -1 -2 -4 -1 -1 0 0 0 0 0 0 0 0 0
0 0 0 0 0 0 0 0 0 0 0 0 0 0 0 0 0 -2 -6 -5 -7 -11 -1 0 0 -1 -1 0 -2 -6 0 0 -1 0 0 -9 0 0 0 0 0 0 0
0 0 0 0 0 0 0 0 0 0 0 -1 -2 -4 -5 -1 -3 -4 -4 -4 -4 -3 -6 -2 -3 -6 0 0 0 0 0 0 0 0 -1 -3 0 0 0 0 0 0 0
0 0 0 0 0 0 0 0 0 0 0 0 0 -1 -1 -3 -5 -4 -3 -3 -2 -4 -1 0 0 0 0 -1 -1 0 -2 -5 -7 -1 -1 -5 0 0 0 0 0 0 0
0 0 0 0 0 0 0 0 0 0 0 0 0 0 -2 -2 -3 -4 -5 -5 0 0 0 0 0 0 0 0 -1 -2 0 -4 -11 -8 -3 0 0 0 0 0 0 0 0
0 0 0 0 0 0 0 0 0 0 0 0 0 0 0 0 0 0 0 0 0 0 0 0 0 0 0 0 0 0 0 0 0 0 -1 0 0 0 0 0 0 0 0
0 0 0 0 0 0 0 0 0 0 0 0 0 0 0 0 0 0 0 0 0 0 0 0 0 0 0 0 0 -1 0 -1 0 0 0 0 0 0 0 0 0 0 0
0 0 0 0 0 0 0 0 0 0 0 0 0 0 -2 0 0 0 0 0 0 0 0 0 0 0 0 0 0 0 0 0 0 0 0 0 0 0 0 0 0 0 0
0 0 0 0 0 0 0 0 0 0 0 0 0 0 0 0 0 0 0 0 0 0 0 0 0 0 0 0 0 0 0 0 0 0 0 0 0 0 0 0 0 0 0
0 0 0 0 0 0 0 0 0 0 0 0 0 0 0 0 0 0 0 0 0 0 0 0 0 0 0 0 0 0 0 0 0 0 0 0 0 0 0 0 0 0 0
0 0 0 0 0 0 0 0 0 0 0 0 0 0 0 0 0 0 0 0 0 0 0 0 0 0 0 0 0 0 0 0 0 0 0 0 0 0 0 0 0 0 0
0 0 0 0 0 0 0 0 0 0 0 0 0 0 0 0 0 0 0 0 0 0 0 0 0 0 0 0 0 0 0 0 0 0 0 0 0 0 0 0 0 0 0
0 0 0 0 0 0 0 0 0 0 0 0 0 0 0 0 0 0 0 0 0 0 0 0 0 0 0 0 0 0 0 0 0 0 0 0 0 0 0 0 0 0 0
Wind_Speed
34 35 36 36 37 38 39 39 39 39 39 39 39 40 40 41 39 39 39 40 42 44 43 45 47 45 46 46 44 46 49 48 57 52 45 38 36 34 33 32 31 30 29
33 34 36 37 38 41 41 42 43 44 43 44 44 43 43 43 43 43 41 40 42 45 45 45 47 47 49 48 47 48 48 47 51 58 49 45 42 38 36 36 35 34 33
35 36 38 40 42 42 44 45 46 47 47 48 48 49 49 49 49 48 46 45 45 45 46 46 47 47 49 49 49 51 49 49 49 53 54 46 44 40 39 38 38 37 36
35 39 43 44 45 45 48 49 49 49 50 51 50 51 52 52 52 53 53 51 50 49 48 48 48 47 49 49 49 51 51 51 49 51 54 51 48 45 41 42 42 39 39
42 44 47 48 49 50 50 51 51 52 53 52 54 54 54 54 53 53 53 54 55 56 53 51 50 49 48 48 49 50 48 51 52 52 53 51 51 48 49 43 44 42 42
42 46 49 51 53 54 56 57 57 56 56 57 59 60 60 59 57 57 59 60 60 60 61 57 53 51 50 50 49 49 50 52 53 53 54 55 54 51 47 47 45 46 49
46 49 51 52 53 54 55 57 59 61 62 64 63 63 65 64 63 62 62 61 61 62 62 61 61 56 53 52 51 50 50 50 53 54 56 57 55 49 46 49 49 49 51
46 48 49 50 53 55 58 60 62 62 63 65 67 67 68 68 67 65 63 62 63 64 64 64 63 64 60 57 56 55 54 51 51 51 55 57 53 47 47 47 49 50 49
45 46 47 51 55 57 59 60 60 62 64 65 64 65 65 68 66 66 65 63 65 67 66 65 65 66 65 62 59 60 58 57 52 52 52 54 53 49 45 44 50 50 54
44 48 51 53 54 57 57 58 58 57 60 60 63 62 64 68 68 68 66 64 67 67 67 67 67 67 67 65 62 62 63 63 56 55 54 54 53 54 51 47 49 53 55
46 49 51 53 55 54 55 54 56 57 57 57 57 56 56 57 59 60 60 58 59 62 64 65 63 64 65 65 62 62 63 61 57 56 56 55 53 52 51 50 51 51 53
47 50 52 51 50 50 52 53 53 52 51 50 49 49 45 45 47 49 51 52 54 58 61 61 63 65 66 66 64 62 61 61 57 57 57 56 55 53 50 50 51 53 52
49 52 50 47 46 47 50 51 49 44 43 43 43 44 45 44 44 47 50 50 50 51 51 57 63 65 64 66 64 61 58 56 56 57 58 58 55 52 49 48 47 48 51
50 49 46 45 46 46 46 45 42 39 38 39 39 42 44 45 44 44 45 45 47 49 50 50 51 54 58 61 61 55 53 52 53 55 55 53 50 49 49 46 46 44 46
48 45 43 43 45 46 43 43 39 33 31 33 35 39 46 48 46 48 51 51 48 47 48 48 48 48 49 50 48 46 45 49 53 53 52 49 47 46 47 45 45 44 46
46 42 42 43 43 43 45 44 38 34 31 26 23 24 29 32 47 49 50 50 50 50 47 47 49 47 46 46 46 42 45 48 49 49 47 47 46 45 44 43 43 44 45
41 40 40 41 41 42 42 42 44 40 36 33 32 30 27 25 28 33 40 43 44 45 41 42 42 43 45 44 43 43 40 40 40 44 45 45 43 42 42 42 41 41 43
39 38 37 40 38 28 30 31 36 39 37 33 36 39 37 35 27 27 33 36 37 35 33 33 36 37 38 38 40 37 39 39 37 39 41 40 39 40 39 39 39 39 40
39 40 41 41 39 32 31 34 35 36 35 34 32 34 38 35 29 31 32 32 34 35 35 34 27 27 30 35 36 37 37 34 35 36 38 37 36 35 36 36 36 36 35
38 39 40 39 38 35 35 37 39 40 40 39 38 37 35 37 37 32 30 30 32 36 40 38 33 14 23 26 31 31 32 30 31 32 32 31 31 32 33 32 32 32 32
36 38 38 36 36 33 34 37 38 39 39 40 39 38 43 39 34 32 28 29 31 37 38 34 28 19 26 30 22 24 23 26 24 24 24 25 25 26 27 28 28 27 26
34 35 36 36 35 33 33 34 36 37 38 39 40 40 42 38 36 35 31 28 29 34 34 31 29 27 25 23 22 20 17 15 16 17 18 19 19 20 21 22 23 22 22
31 33 34 34 32 32 33 34 35 36 37 38 39 40 40 40 39 38 36 32 29 33 34 30 28 26 25 23 20 18 15 15 14 12 11 13 14 15 16 18 19 19 19
29 30 31 31 31 31 32 32 33 34 35 36 37 38 39 39 38 37 37 37 36 32 31 32 28 26 24 22 20 18 16 14 13 11 9 9 10 10 12 13 14 14 13
28 28 29 29 30 30 30 31 31 31 32 33 34 36 38 38 37 35 35 34 35 35 35 34 32 28 25 23 22 19 17 15 12 11 9 7 6 7 8 9 9 10 10
26 26 27 26 27 27 28 29 29 29 29 29 30 32 35 37 37 35 34 34 34 33 32 32 30 30 27 23 23 21 18 15 12 10 8 6 4 4 6 5 4 5 5
Wind_Direction
320 318 317 317 316 314 313 312 312 312 312 311 311 312 311 309 307 304 301 298 293 289 290 287 284 284 282 282 281 277 275 273 273 277 276 274 270 267 266 263 262 261 262
321 319 316 314 313 312 312 312 311 309 309 306 306 305 305 304 304 303 301 299 297 292 293 290 287 285 283 282 280 279 277 274 273 274 275 272 269 265 263 261 261 261 260
319 318 318 315 313 311 312 309 308 307 306 303 303 302 301 301 299 299 298 298 296 295 294 292 290 287 284 283 281 279 278 276 273 272 273 273 269 268 265 264 261 260 261
318 316 314 311 309 310 308 306 305 305 304 303 302 300 299 299 298 297 297 296 294 294 293 292 291 289 286 284 283 279 278 275 274 271 271 269 269 268 264 261 261 259 258
314 314 313 312 311 309 308 306 306 303 301 301 298 298 298 297 296 296 296 294 293 291 291 290 290 289 287 286 283 281 278 276 273 271 270 269 266 265 261 262 261 261 259
313 313 313 312 311 310 308 306 305 304 303 300 297 295 295 293 295 296 293 291 290 288 286 287 287 287 286 285 283 281 277 274 272 270 269 267 267 265 264 261 260 259 260
314 313 313 313 311 311 310 308 305 303 301 299 298 296 293 293 293 294 294 292 289 287 285 284 283 283 283 283 282 281 278 274 271 271 269 267 268 265 263 261 259 259 260
317 317 317 316 315 313 311 308 306 305 302 300 298 296 295 294 294 294 293 292 289 286 284 282 281 279 279 278 279 278 277 276 273 270 269 269 269 268 262 261 261 261 262
320 321 322 320 317 315 313 311 309 307 304 302 300 298 296 294 294 294 293 291 288 285 284 282 280 278 277 276 276 274 274 273 273 272 269 268 268 267 264 262 259 259 260
323 322 321 321 319 317 316 314 312 310 307 306 303 301 298 296 295 293 292 291 287 285 283 281 279 277 276 274 273 272 271 271 272 271 270 268 266 265 264 258 258 257 259
324 324 323 322 321 320 318 317 315 313 310 309 307 306 304 302 300 298 295 293 290 287 284 282 280 278 275 273 271 269 268 271 270 269 268 267 266 265 261 260 256 257 257
326 326 325 325 325 324 323 322 320 317 315 314 313 313 314 313 310 307 304 299 295 290 287 285 281 278 276 273 270 268 268 268 268 267 266 264 264 264 263 260 258 257 258
327 327 327 328 329 329 327 325 324 323 321 320 320 318 318 318 316 312 307 304 301 297 294 289 283 281 279 274 271 267 266 265 265 265 264 263 263 264 264 262 260 257 258
328 329 330 331 331 332 332 331 329 328 326 324 323 321 319 319 319 317 314 308 303 298 295 293 292 284 279 277 270 267 263 262 264 265 265 264 264 262 260 260 258 257 257
331 331 333 334 334 335 336 336 333 331 328 326 325 323 320 318 320 317 314 312 309 304 299 294 290 287 282 278 276 265 263 262 264 265 264 263 262 260 259 257 256 256 255
331 333 334 335 337 338 336 338 340 335 333 328 317 318 326 323 321 319 317 315 311 307 303 297 291 285 279 278 277 272 268 265 263 263 262 262 260 258 258 257 255 254 253
332 332 335 337 340 340 342 343 342 345 341 338 338 336 332 326 327 329 327 323 319 315 312 305 295 288 278 274 274 273 270 269 267 263 262 260 258 257 255 254 253 253 252
331 332 337 337 343 349 351 352 350 347 349 349 345 340 341 342 340 337 337 332 328 327 322 316 307 293 285 274 270 270 273 271 269 266 263 260 257 256 254 252 252 252 252
325 324 326 332 340 350 353 353 354 353 352 352 352 351 348 349 350 352 349 344 339 335 331 324 320 309 292 276 271 268 270 271 272 269 265 261 257 254 253 252 251 251 251
317 321 326 334 341 349 352 353 354 354 353 353 354 355 356 354 356 4 4 360 354 346 331 317 300 329 307 288 274 271 271 274 276 271 265 261 257 254 253 251 250 249 250
315 321 330 338 343 353 355 355 357 358 359 357 358 357 349 355 2 7 12 10 3 347 334 325 329 338 303 285 293 285 280 282 280 272 267 263 258 254 253 251 250 248 250
314 321 330 335 345 353 358 0 2 2 2 2 3 2 355 1 2 4 13 18 15 357 337 331 335 336 329 322 313 305 302 293 286 279 273 266 259 256 253 251 250 248 250
316 323 329 337 348 355 359 2 4 6 7 7 6 6 4 0 359 360 9 19 25 13 348 338 333 332 334 335 333 329 321 311 303 295 283 273 264 259 256 253 251 250 251
318 325 333 342 350 355 360 3 7 9 11 12 13 11 7 357 353 353 358 3 14 30 33 1 351 344 341 337 333 332 330 325 316 310 299 284 274 268 263 258 256 255 251
318 327 337 345 351 357 3 6 10 13 15 18 17 16 11 2 355 350 352 351 358 5 14 20 15 356 352 351 349 344 337 334 332 320 317 307 292 278 269 265 259 255 251
321 333 341 349 354 1 5 8 12 15 18 19 20 19 13 9 5 353 351 354 358 359 0 3 1 4 358 353 358 1 1 357 343 338 338 354 6 304 280 279 270 262 256